Location: Unspecified
(0.0000°N, 0.0000°E)
Time: 17:48:26
(UTC+00:00)

STARLINK 1061 - Pass Details

Date: 21 January 2020
Orbit: 548 x 551 km, 53.0° (Epoch: 17 January)

Event Time Altitude Azimuth Distance (km) Brightness Sun altitude
Rises 05:15:36 0° 216° (SW) 2,713 7.0 -13.0°
Reaches altitude 10° 05:17:50 10° 216° (SW) 1,817 6.1 -12.5°
Maximum altitude 05:21:58 82° 305° (NW) 556 3.5 -11.5°
Drops below altitude 10° 05:26:05 10° 31° (NNE) 1,808 6.4 -10.6°
Sets 05:28:18 0° 32° (NNE) 2,698 7.3 -10.0°
